Lid_Strength_Index
1 1 2 2 2 3 5 5 5 9 9 9 9 7 7 6 6 6 7 5 5 5 6 6 7 8 7 7 7 6 6 6 7 7 7 6 6 6
1 1 2 3 3 3 4 4 4 5 7 8 9 8 6 6 6 6 6 5 5 6 6 7 8 8 8 7 7 7 6 6 6 6 6 6 6 6
1 1 2 3 4 3 4 4 5 5 6 10 8 9 8 7 6 8 7 8 7 6 7 8 8 8 7 6 7 7 7 7 7 7 7 7 7 6
2 2 3 3 4 4 4 4 4 5 8 9 9 10 10 8 9 9 9 10 10 8 7 8 8 8 7 7 7 7 8 8 8 8 8 7 7 7
2 2 3 3 4 4 4 4 4 5 7 8 10 10 10 10 11 11 12 12 12 10 8 9 9 8 7 7 8 8 8 9 9 8 8 8 8 7
2 2 3 3 4 4 4 4 5 6 7 9 10 11 11 11 11 13 13 13 13 11 11 10 10 10 9 9 10 10 10 9 9 8 9 8 8 7
3 3 3 3 4 3 4 5 6 8 9 10 12 12 13 13 12 12 12 12 13 13 13 13 14 15 14 12 12 10 9 9 9 9 9 9 8 8
5 5 4 4 4 3 4 5 6 8 9 10 12 12 12 12 12 11 13 13 14 13 14 15 15 16 15 15 11 10 10 10 10 10 9 9 8 8
6 6 6 5 5 5 5 5 6 6 7 9 10 11 12 11 11 12 13 13 14 15 16 17 16 16 15 14 12 10 11 11 10 10 9 9 9 9
7 7 7 7 6 7 9 10 11 10 9 9 10 10 11 10 10 11 12 15 15 15 15 18 17 16 15 15 12 11 11 11 10 10 10 10 10 9
8 7 7 7 7 8 10 12 12 11 9 8 8 8 8 9 11 13 15 15 17 16 16 17 16 17 16 16 15 12 11 11 11 11 10 10 10 10
10 8 7 7 7 8 11 12 12 11 12 12 13 12 12 10 10 13 14 17 17 19 16 18 17 17 19 16 15 15 15 12 12 12 11 11 11 12
10 9 8 7 8 9 10 11 12 12 12 14 14 15 15 15 15 14 14 15 18 18 15 19 19 19 20 18 16 15 16 15 15 15 13 12 11 11
10 9 8 8 8 9 10 9 10 12 14 15 15 16 16 16 16 15 15 15 15 16 16 16 23 20 21 22 19 17 17 16 16 16 15 13 12 11
9 8 8 9 9 9 9 10 12 14 15 16 17 17 16 16 15 16 15 15 15 15 14 15 18 17 21 22 21 19 17 17 16 16 15 15 15 14
9 10 10 10 10 10 12 14 14 15 16 17 17 16 16 17 17 16 18 18 19 18 15 15 16 18 24 20 21 20 18 22 16 16 15 15 15 14
11 12 13 14 15 15 15 15 15 16 16 17 17 17 17 17 17 17 19 20 21 20 19 18 16 17 18 21 19 19 19 19 17 16 16 16 15 14
12 14 15 15 16 16 16 17 16 16 17 17 17 18 18 19 19 19 19 21 22 21 23 21 22 22 21 19 16 19 20 19 16 16 16 17 17 15
14 15 16 16 16 17 17 17 17 17 17 18 19 20 20 21 21 21 20 21 22 23 23 23 27 27 24 24 19 13 21 17 17 17 16 17 17 16
14 15 16 16 17 17 17 17 18 18 19 20 21 22 23 23 24 24 23 24 26 24 25 27 29 22 22 23 20 19 14 17 18 17 17 16 14 12
15 16 16 17 17 17 17 18 18 19 19 20 21 23 23 23 25 23 20 17 21 26 27 26 23 16 27 27 25 22 19 14 14 16 17 18 18 16
16 16 16 17 17 17 18 18 17 18 19 20 21 21 22 22 23 23 22 24 23 23 24 25 23 25 28 27 27 25 20 18 15 14 12 12 15 16
16 16 17 17 17 17 17 17 18 18 19 20 20 22 22 23 23 20 21 21 23 25 24 24 24 25 26 25 22 26 25 21 18 18 18 12 11 11